Previsão horária em Abaza

Hoje, 17 Abril, Sábado

Tempo Temperatura Precipitação Vento Pressão Humidade
00:00 +5°C° 0 mm 2 m/s 717 mmHg 90%
01:00 +5°C° 0 mm 2 m/s 717 mmHg 89%
02:00 +5°C° 0 mm 2 m/s 716 mmHg 87%
03:00 +5°C° 0 mm 2 m/s 716 mmHg 86%
04:00 +6°C° 0 mm 2 m/s 716 mmHg 83%
05:00 +6°C° 0 mm 2 m/s 716 mmHg 80%
06:00 +6°C° 0 mm 2 m/s 715 mmHg 78%
07:00 +8°C° 0.2 mm 3 m/s 715 mmHg 76%
08:00 +9°C° 0.2 mm 3 m/s 715 mmHg 74%
09:00 +10°C° 0.2 mm 3 m/s 714 mmHg 72%
10:00 +8°C° 1.5 mm 3 m/s 715 mmHg 79%
11:00 +7°C° 1.5 mm 3 m/s 716 mmHg 86%
12:00 +4°C° 1.5 mm 3 m/s 716 mmHg 94%
13:00 +4°C° 1.1 mm 2 m/s 717 mmHg 93%
14:00 +3°C° 1.1 mm 2 m/s 718 mmHg 92%
15:00 +2°C° 1.1 mm 2 m/s 719 mmHg 91%
16:00 +3°C° 0.1 mm 1 m/s 720 mmHg 89%
17:00 +3°C° 0.1 mm 1 m/s 720 mmHg 88%
18:00 +3°C° 0.1 mm 1 m/s 720 mmHg 86%
19:00 +3°C° 0.1 mm 1 m/s 721 mmHg 89%
20:00 +2°C° 0.1 mm 1 m/s 721 mmHg 91%
21:00 +1°C° 0.1 mm 1 m/s 722 mmHg 94%
22:00 0°C° 0.1 mm 1 m/s 722 mmHg 94%
23:00 0°C° 0.1 mm 1 m/s 722 mmHg 95%

Amanhã, 18 Abril, Domingo

Tempo Temperatura Precipitação Vento Pressão Humidade
00:00 0°C° 0.1 mm 1 m/s 722 mmHg 95%
01:00 0°C° 0 mm 1 m/s 722 mmHg 95%
02:00 -2°C° 0 mm 0 m/s 722 mmHg 95%
03:00 -2°C° 0 mm 0 m/s 721 mmHg 95%
04:00 -2°C° 0 mm 0 m/s 721 mmHg 93%
05:00 -2°C° 0 mm 0 m/s 721 mmHg 92%
06:00 -1°C° 0 mm 0 m/s 721 mmHg 90%
07:00 +1°C° 0 mm 0 m/s 720 mmHg 82%
08:00 +4°C° 0 mm 1 m/s 720 mmHg 74%
09:00 +5°C° 0 mm 1 m/s 720 mmHg 66%
10:00 +6°C° 0 mm 2 m/s 719 mmHg 58%
11:00 +7°C° 0 mm 3 m/s 718 mmHg 50%
12:00 +7°C° 0 mm 4 m/s 718 mmHg 43%
13:00 +7°C° 0 mm 4 m/s 718 mmHg 46%
14:00 +7°C° 0 mm 4 m/s 717 mmHg 48%
15:00 +7°C° 0 mm 4 m/s 717 mmHg 51%
16:00 +7°C° 0 mm 3 m/s 717 mmHg 58%
17:00 +6°C° 0 mm 2 m/s 717 mmHg 65%
18:00 +6°C° 0 mm 2 m/s 717 mmHg 72%
19:00 +4°C° 0 mm 2 m/s 717 mmHg 77%
20:00 +3°C° 0 mm 2 m/s 717 mmHg 81%
21:00 +2°C° 0 mm 2 m/s 716 mmHg 86%
22:00 +2°C° 0 mm 2 m/s 715 mmHg 86%
23:00 +2°C° 0 mm 2 m/s 715 mmHg 86%

Depois de amanhã, 19 Abril, Segunda-feira

Tempo Temperatura Precipitação Vento Pressão Humidade
00:00 +1°C° 0 mm 3 m/s 714 mmHg 86%
01:00 +1°C° 0 mm 3 m/s 713 mmHg 82%
02:00 +2°C° 0 mm 3 m/s 712 mmHg 78%
03:00 +2°C° 0 mm 3 m/s 711 mmHg 74%
04:00 +3°C° 0 mm 4 m/s 710 mmHg 71%
05:00 +4°C° 0 mm 4 m/s 710 mmHg 69%
06:00 +6°C° 0 mm 4 m/s 710 mmHg 66%
07:00 +5°C° 0.8 mm 4 m/s 711 mmHg 72%
08:00 +3°C° 0.8 mm 5 m/s 712 mmHg 78%
09:00 +3°C° 0.8 mm 5 m/s 713 mmHg 84%
10:00 +2°C° 0.3 mm 5 m/s 714 mmHg 78%
11:00 +1°C° 0.3 mm 5 m/s 716 mmHg 71%
12:00 +1°C° 0.3 mm 6 m/s 717 mmHg 65%
13:00 0°C° 0.1 mm 5 m/s 717 mmHg 64%
14:00 0°C° 0.1 mm 5 m/s 718 mmHg 63%
15:00 0°C° 0.1 mm 5 m/s 718 mmHg 63%
16:00 -1°C° 0.1 mm 4 m/s 718 mmHg 65%
17:00 0°C° 0.1 mm 3 m/s 719 mmHg 67%
18:00 -1°C° 0.1 mm 3 m/s 719 mmHg 70%
19:00 -2°C° 0.2 mm 2 m/s 719 mmHg 74%
20:00 -3°C° 0.2 mm 2 m/s 720 mmHg 78%
21:00 -3°C° 0.2 mm 2 m/s 720 mmHg 82%
22:00 -2°C° 0.2 mm 1 m/s 720 mmHg 81%
23:00 -2°C° 0.2 mm 1 m/s 720 mmHg 79%

20 Abril, Terça-feira

Tempo Temperatura Precipitação Vento Pressão Humidade
00:00 -2°C° 0.2 mm 1 m/s 720 mmHg 78%
01:00 -3°C° 0.2 mm 1 m/s 720 mmHg 78%
02:00 -3°C° 0.2 mm 1 m/s 720 mmHg 78%
03:00 -3°C° 0.2 mm 1 m/s 720 mmHg 79%
04:00 -3°C° 0.1 mm 1 m/s 720 mmHg 77%
05:00 -3°C° 0.1 mm 1 m/s 720 mmHg 75%
06:00 -3°C° 0.1 mm 1 m/s 720 mmHg 73%
07:00 -2°C° 0.1 mm 1 m/s 720 mmHg 68%
08:00 -2°C° 0.1 mm 1 m/s 720 mmHg 63%
09:00 -1°C° 0.1 mm 1 m/s 720 mmHg 58%
10:00 0°C° 0 mm 1 m/s 719 mmHg 55%
11:00 0°C° 0 mm 1 m/s 719 mmHg 51%
12:00 -1°C° 0 mm 2 m/s 719 mmHg 48%
13:00 -1°C° 0 mm 2 m/s 719 mmHg 47%
14:00 +1°C° 0 mm 2 m/s 719 mmHg 46%
15:00 +1°C° 0 mm 2 m/s 719 mmHg 44%
16:00 -1°C° 0 mm 2 m/s 719 mmHg 48%
17:00 -1°C° 0 mm 2 m/s 719 mmHg 51%
18:00 -2°C° 0 mm 2 m/s 719 mmHg 54%
19:00 -3°C° 0 mm 2 m/s 720 mmHg 60%
20:00 -1°C° 0 mm 1 m/s 720 mmHg 65%
21:00 -2°C° 0 mm 1 m/s 720 mmHg 71%
22:00 -3°C° 0 mm 1 m/s 720 mmHg 71%
23:00 -3°C° 0 mm 1 m/s 720 mmHg 71%

21 Abril, Quarta-feira

Tempo Temperatura Precipitação Vento Pressão Humidade
00:00 -3°C° 0 mm 1 m/s 720 mmHg 70%
01:00 -3°C° 0 mm 1 m/s 720 mmHg 69%
02:00 -3°C° 0 mm 1 m/s 720 mmHg 68%
03:00 -4°C° 0 mm 1 m/s 720 mmHg 67%
04:00 -4°C° 0 mm 1 m/s 721 mmHg 68%
05:00 -4°C° 0 mm 1 m/s 721 mmHg 68%
06:00 -4°C° 0 mm 1 m/s 721 mmHg 69%
07:00 -3°C° 0.1 mm 1 m/s 722 mmHg 62%
08:00 -2°C° 0.1 mm 1 m/s 722 mmHg 56%
09:00 -3°C° 0.1 mm 2 m/s 722 mmHg 50%
10:00 -2°C° 0 mm 2 m/s 722 mmHg 46%
11:00 -2°C° 0 mm 2 m/s 722 mmHg 42%
12:00 -1°C° 0 mm 3 m/s 722 mmHg 38%
13:00 -1°C° 0 mm 3 m/s 722 mmHg 37%
14:00 0°C° 0 mm 3 m/s 722 mmHg 37%
15:00 0°C° 0 mm 3 m/s 722 mmHg 37%
16:00 -1°C° 0 mm 2 m/s 723 mmHg 40%
17:00 -1°C° 0 mm 2 m/s 723 mmHg 43%
18:00 +1°C° 0 mm 1 m/s 724 mmHg 45%
19:00 0°C° 0 mm 1 m/s 724 mmHg 53%
20:00 -2°C° 0 mm 1 m/s 725 mmHg 60%
21:00 -4°C° 0 mm 0 m/s 725 mmHg 68%
22:00 -4°C° 0 mm 0 m/s 726 mmHg 69%
23:00 -4°C° 0 mm 0 m/s 726 mmHg 70%

22 Abril, Quinta-feira

Tempo Temperatura Precipitação Vento Pressão Humidade
00:00 -4°C° 0 mm 0 m/s 726 mmHg 71%
01:00 -5°C° 0 mm 0 m/s 726 mmHg 72%
02:00 -4°C° 0 mm 1 m/s 727 mmHg 74%
03:00 -4°C° 0 mm 1 m/s 727 mmHg 76%
04:00 -4°C° 0 mm 1 m/s 727 mmHg 74%
05:00 -4°C° 0 mm 1 m/s 728 mmHg 72%
06:00 -3°C° 0 mm 1 m/s 728 mmHg 70%
07:00 -4°C° 0 mm 2 m/s 729 mmHg 63%
08:00 -2°C° 0 mm 2 m/s 729 mmHg 55%
09:00 -1°C° 0 mm 3 m/s 729 mmHg 48%
10:00 0°C° 0 mm 3 m/s 729 mmHg 45%
11:00 0°C° 0 mm 3 m/s 729 mmHg 42%
12:00 0°C° 0 mm 4 m/s 729 mmHg 38%
13:00 0°C° 0 mm 4 m/s 729 mmHg 37%
14:00 0°C° 0 mm 4 m/s 729 mmHg 36%
15:00 +1°C° 0 mm 4 m/s 729 mmHg 35%
16:00 0°C° 0 mm 4 m/s 730 mmHg 37%
17:00 +1°C° 0 mm 3 m/s 730 mmHg 40%
18:00 0°C° 0 mm 3 m/s 731 mmHg 42%
19:00 -1°C° 0 mm 2 m/s 731 mmHg 50%
20:00 -3°C° 0 mm 2 m/s 732 mmHg 57%
21:00 -2°C° 0 mm 1 m/s 732 mmHg 65%
22:00 -3°C° 0 mm 1 m/s 733 mmHg 69%
23:00 -3°C° 0 mm 1 m/s 733 mmHg 73%
Mostrar mais